Location: Peterborough
(44.3091°N, 78.3197°W)
Time: 00:03:38
(UTC-04:00)

Vanguard 2 Rocket - Pass Details

Date: 23 March 2023
Orbit: 554 x 3314 km, 32.9° (Epoch: 02 June)

Event Time Altitude Azimuth Distance (km) Brightness Sun altitude
Rises 03:54:33 0° 273° (W) 6,153 - -33.2°
Reaches altitude 10° 03:59:33 10° 260° (W) 5,522 - -32.5°
Maximum altitude 04:11:34 23° 217° (SW) 5,068 - -30.8°
Exits shadow 04:19:20 18° 190° (S) 5,574 10.5 -29.7°
Drops below altitude 10° 04:25:10 10° 174° (S) 6,232 10.9 -28.8°
Sets 04:31:31 0° 162° (SSE) 7,098 11.3 -27.9°
